Milford, UT

10:09 AM MST on February 12, 2016 (GMT -0700)
Milford Municipal

Weather History for KMLF - September, 2012

Change the Weather History Date:

Friday, September 7, 2012

  Actual Average Record
Temperature  
Mean Temperature 73 °F -  
Max Temperature 86 °F 81 °F 90 °F (2008)
Min Temperature 60 °F 48 °F 36 °F (2010)
Cooling Degree Days 8    
Growing Degree Days 23 (Base 50)    
Moisture  
Dew Point 47 °F    
Average Humidity 45    
Maximum Humidity 87    
Minimum Humidity 9    
Precipitation  
Precipitation 0.00 in - - ()
Sea Level Pressure  
Sea Level Pressure 30.03 in    
Wind  
Wind Speed 9 mph (North)    
Max Wind Speed 20 mph    
Max Gust Speed 26 mph    
Visibility 10 miles    
Events      
Averages and records for this station are not official NWS values.
T = Trace of Precipitation, MM = Missing Value Source: NWS Daily Summary

Daily Weather History Graph

Daily Weather History Graph

Search for Another Location

Airport or City:

Trip Planner

Search our weather history database for the weather conditions in past years. The results will help you decide how hot, cold, wet, or windy it might be!

Date:

Astronomy

Sep. 07, 2012 Rise Set
Actual Time 7:07 AM MDT 7:51 PM MDT
Civil Twilight 6:40 AM MDT 8:18 PM MDT
Nautical Twilight 6:08 AM MDT 8:50 PM MDT
Astronomical Twilight 5:35 AM MDT 9:22 PM MDT
Moon 11:56 PM MDT (9/7) 1:56 PM MDT (9/7)
Length of Visible Light 13h 38m
Length of Day
12h 44m
Waning Gibbous, 58% of the Moon is Illuminated
Sep 7
Waning Gibbous
Sep 8
Last Quarter
Sep 15
New
Sep 22
First Quarter
Sep 29
Full

Hourly Weather History & Observations

Time (MDT) Temp. Dew Point Humidity Pressure Visibility Wind Dir Wind Speed Gust Speed Precip Events Conditions
12:52 AM 64.9 °F 53.1 °F 65% 29.96 in 10.0 mi East 4.6 mph - N/A   Overcast
1:52 AM 64.9 °F 55.0 °F 70% 29.96 in 10.0 mi Calm Calm - 0.00 in   Overcast
2:52 AM 63.0 °F 55.9 °F 78% 29.97 in 10.0 mi NNW 8.1 mph - N/A   Mostly Cloudy
3:52 AM 64.0 °F 55.0 °F 73% 29.98 in 10.0 mi East 4.6 mph - N/A   Overcast
4:52 AM 63.0 °F 55.9 °F 78% 29.97 in 10.0 mi NNW 5.8 mph - 0.00 in   Overcast
5:52 AM 63.0 °F 55.0 °F 75% 29.99 in 10.0 mi NNW 8.1 mph - 0.00 in   Overcast
6:52 AM 61.0 °F 55.9 °F 83% 30.02 in 10.0 mi North 6.9 mph - N/A   Overcast
7:52 AM 61.0 °F 57.0 °F 87% 30.07 in 10.0 mi North 5.8 mph - N/A   Clear
8:52 AM 66.9 °F 57.0 °F 70% 30.07 in 10.0 mi North 9.2 mph - N/A   Clear
9:52 AM 66.9 °F 55.9 °F 68% 30.10 in 10.0 mi North 12.7 mph - N/A   Mostly Cloudy
10:52 AM 75.0 °F 55.0 °F 50% 30.08 in 10.0 mi NNE 11.5 mph - N/A   Clear
11:52 AM 78.1 °F 53.1 °F 42% 30.08 in 10.0 mi North 12.7 mph - N/A   Clear
12:00 PM - - N/A% - - North - - N/A   Unknown
12:52 PM 81.0 °F 52.0 °F 36% 30.06 in 10.0 mi North 16.1 mph 24.2 mph N/A   Clear
1:52 PM 84.0 °F 44.1 °F 25% 30.04 in 10.0 mi North 18.4 mph 24.2 mph N/A   Clear
2:52 PM 84.9 °F 42.1 °F 22% 30.02 in 10.0 mi North 15.0 mph 25.3 mph N/A   Clear
3:52 PM 84.9 °F 39.9 °F 20% 30.00 in 10.0 mi North 12.7 mph 26.5 mph N/A   Clear
4:52 PM 84.9 °F 37.0 °F 18% 30.00 in 10.0 mi NNE 17.3 mph 20.7 mph N/A   Clear
5:52 PM 84.9 °F 36.0 °F 17% 29.99 in 10.0 mi NNE 17.3 mph 25.3 mph N/A   Clear
6:52 PM 82.0 °F 33.1 °F 17% 30.00 in 10.0 mi NNE 19.6 mph - N/A   Clear
7:52 PM 77.0 °F 36.0 °F 23% 30.03 in 10.0 mi North 13.8 mph - N/A   Clear
8:52 PM 72.0 °F 36.0 °F 27% 30.06 in 10.0 mi NNW 11.5 mph - N/A   Clear
9:52 PM 66.9 °F 37.0 °F 33% 30.09 in 10.0 mi NNW 11.5 mph - N/A   Clear
10:52 PM 66.0 °F 37.9 °F 36% 30.09 in 10.0 mi North 10.4 mph - N/A   Clear
11:52 PM 66.0 °F 36.0 °F 33% 30.08 in 10.0 mi North 15.0 mph - N/A   Clear